Location: Unspecified
(41.1850°N, 73.2650°W)
Time: 18:03:41
(UTC+00:00)

BREEZE-M DEB (TANK) - Pass Details

Date: 14 December 2025
Orbit: 276 x 13314 km, 49.5° (Epoch: 14 January)

Event Time Altitude Azimuth Distance (km) Brightness Sun altitude
Rises 23:18:21 0° 302° (WNW) 2,659 7.0 -20.6°
Reaches altitude 10° 23:19:45 10° 306° (NW) 2,072 6.3 -20.8°
Maximum altitude 23:24:04 63° 30° (NNE) 1,330 4.4 -21.6°
Enters shadow 23:31:01 27° 102° (ESE) 3,765 6.5 -22.9°
